Content
SEND FEEDBACK

Daily
Averages
Monthly
Summary
United States of America

QUANAH, TEXAS


Home > North America > United States > Texas
Elevation: 1602 feet     Latitude: 34 16N     Longitude: 099 45W

WEATHER
 
SELECT A DAY
Number of Records: 260,968;   Date Range: 6/6/03 - 7/23/14
 
SHARE

PRINT THIS DATA

[ ← Previous Day ]
WEATHER ALMANAC - FEBRUARY 13, 2013
[ Next Day → ]
[ °C ]   °F
Weather ElementAverageHighLow
Temperature41.7 °F58.8 °F (5:15 pm) (6:35 pm)
Dewpoint31.6 °F35.8 °F (6:15 pm) (7:00 pm)
Humidity70.4 %93 % (1:15 am)36 % (5:15 pm)
Barometer30.06 in30.13 in (9:35 am)29.98 in (5:55 pm)
Wind Speed5.3 mph9.2 mph (2:15 pm)
Weather ElementAverage
Visibility9.4 mi
Wind DirectionSW (224.9 °)

Weather ElementTotal
Precipitation---
Heating Degree Days35.6 (Base 65)
Averaged from 68 records on February 13, 2013
WEATHER CONDITIONS BREAKOUT
WIND DIRECTION BREAKOUT
WEATHER BY HOUR - FEBRUARY 13, 2013
[ °C ]   °F
Local TimeTemperatureDewpointHumidityBarometerVisibilityWind DirectionWind SpeedGust SpeedPrecipitationEventsConditions
12:35 AM34.3 °F31.8 °F90 %30.12 in10.0 miWNW (290°)6.9 mphScattered Clouds
12:55 AM33.8 °F31.8 °F92 %30.11 in10.0 miWNW (290°)5.8 mphScattered Clouds
1:15 AM33.4 °F31.6 °F93 %30.11 in10.0 miWest (270°)4.6 mphClear
1:35 AM33.3 °F31.3 °F92 %30.10 in10.0 miWest (270°)5.8 mphClear
1:55 AM33.3 °F31.1 °F92 %30.10 in10.0 miWest (270°)6.9 mphScattered Clouds
2:15 AM33.4 °F31.3 °F92 %30.10 in10.0 miWest (280°)6.9 mphClear
2:35 AM33.6 °F30.9 °F90 %30.11 in10.0 miWSW (250°)5.8 mphClear
2:55 AM33.1 °F30.9 °F92 %30.11 in10.0 miWest (260°)5.8 mphClear
3:15 AM33.3 °F30.7 °F90 %30.10 in10.0 miWest (260°)5.8 mphScattered Clouds
3:35 AM33.1 °F30.7 °F91 %30.10 in10.0 miWest (260°)4.6 mphScattered Clouds
3:55 AM32.9 °F30.6 °F91 %30.10 in10.0 miWest (270°)3.5 mphScattered Clouds
4:15 AM32.9 °F30.2 °F90 %30.09 in10.0 miWNW (300°)5.8 mphClear
4:35 AM32.9 °F30.2 °F90 %30.10 in10.0 miWest (270°)5.8 mphClear
4:55 AM32.7 °F30.2 °F90 %30.09 in10.0 miWest (270°)3.5 mphClear
5:15 AM32.4 °F30.0 °F91 %30.09 in7.0 miWSW (250°)4.6 mphScattered Clouds
5:35 AM32.2 °F30.2 °F92 %30.08 in7.0 miWSW (250°)5.8 mphClear
5:55 AM32.0 °F29.7 °F91 %30.08 in5.0 miSSW (210°)3.5 mphClear
6:15 AM31.6 °F29.3 °F91 %30.08 in7.0 miWSW (250°)5.8 mphClear
6:35 AM31.8 °F29.7 °F92 %30.09 in7.0 miWSW (240°)6.9 mphClear
6:55 AM31.5 °F29.3 °F92 %30.09 in7.0 miSW (220°)4.6 mphClear
7:15 AM30.7 °F28.8 °F92 %30.09 in7.0 miSW (230°)4.6 mphClear
7:35 AM30.9 °F28.9 °F92 %30.09 in7.0 miSW (230°)8.1 mphClear
7:55 AM30.9 °F28.8 °F92 %30.10 in5.0 miWSW (240°)8.1 mphClear
8:15 AM31.6 °F29.7 °F92 %30.11 in5.0 miWSW (250°)8.1 mphClear
8:35 AM32.2 °F30.0 °F92 %30.11 in7.0 miWSW (240°)6.9 mphClear
8:55 AM33.6 °F30.9 °F90 %30.11 in10.0 miSW (230°)8.1 mphClear
9:15 AM34.7 °F31.3 °F87 %30.12 in10.0 miWSW (250°)3.5 mphClear
9:35 AM36.0 °F31.8 °F85 %30.13 in10.0 miWest (280°)3.5 mphClear
9:55 AM38.3 °F32.0 °F78 %30.13 in10.0 miWNW (290°)8.1 mphClear
10:15 AM40.1 °F32.0 °F73 %30.13 in10.0 miWest (270°)8.1 mphClear
10:35 AM41.4 °F32.5 °F71 %30.13 in10.0 miWest (270°)8.1 mphClear
10:55 AM43.2 °F33.8 °F70 %30.12 in10.0 miWSW (250°)5.8 mphClear
11:15 AM44.4 °F34.5 °F68 %30.12 in10.0 miWest (270°)4.6 mphClear
11:35 AM46.0 °F34.9 °F65 %30.12 in10.0 miWest (280°)5.8 mphClear
11:55 AM47.7 °F33.3 °F57 %30.11 in10.0 miWest (280°)6.9 mphClear
12:15 PM48.7 °F32.7 °F54 %30.11 in10.0 miWest (270°)3.5 mphClear
12:35 PM49.6 °F33.3 °F53 %30.10 in10.0 miCalmClear
12:55 PM50.7 °F33.8 °F52 %30.08 in10.0 miWNW (290°)5.8 mphClear
1:15 PM51.8 °F34.3 °F51 %30.07 in10.0 miWest (270°)3.5 mphClear
1:55 PM53.2 °F33.6 °F47 %30.05 in10.0 miWest (270°)5.8 mphClear
2:15 PM54.5 °F33.6 °F45 %30.04 in10.0 miWest (270°)9.2 mphClear
2:35 PM55.2 °F34.0 °F45 %30.03 in10.0 miWNW (290°)6.9 mphClear
2:55 PM56.1 °F34.7 °F45 %30.03 in10.0 miWest (260°)6.9 mphClear
3:15 PM56.5 °F34.0 °F43 %30.02 in10.0 miCalmClear
3:35 PM57.2 °F34.2 °F42 %30.01 in10.0 miWest (270°)3.5 mphClear
4:35 PM58.5 °F32.5 °F38 %30.00 in10.0 miSouth (170°)4.6 mphClear
4:55 PM58.3 °F31.8 °F37 %29.99 in10.0 miSSW (210°)3.5 mphClear
5:15 PM58.8 °F31.5 °F36 %29.99 in10.0 miSW (230°)5.8 mphClear
5:35 PM58.3 °F33.1 °F39 %29.99 in10.0 miSSW (210°)9.2 mphClear
5:55 PM57.2 °F35.4 °F44 %29.98 in10.0 miSSW (210°)6.9 mphClear
6:15 PM55.2 °F35.8 °F48 %29.98 in10.0 miSSW (210°)8.1 mphClear
6:35 PM0.0 °F0.0 °F29.99 in10.0 miSSW (200°)8.1 mph
6:55 PM51.3 °F35.2 °F54 %29.99 in10.0 miSSW (200°)6.9 mphClear
7:15 PM50.7 °F34.2 °F53 %29.99 in10.0 miSouth (180°)5.8 mphClear
7:35 PM50.0 °F32.4 °F51 %30.00 in10.0 miSouth (180°)4.6 mphClear
7:55 PM49.8 °F31.6 °F50 %30.00 in10.0 miSouth (180°)5.8 mphClear
8:15 PM48.0 °F32.5 °F55 %30.00 in10.0 miSSE (160°)5.8 mphClear
8:35 PM46.0 °F33.6 °F62 %30.00 in10.0 miSSE (150°)4.6 mphClear
8:55 PM46.8 °F32.4 °F57 %30.01 in10.0 miSSE (160°)4.6 mphClear
9:15 PM48.2 °F31.5 °F52 %30.01 in10.0 miSE (140°)3.5 mphClear
9:35 PM45.3 °F33.1 °F62 %30.01 in10.0 miCalmClear
9:55 PM43.3 °F33.8 °F69 %30.01 in10.0 miCalmClear
10:15 PM43.7 °F33.8 °F68 %30.01 in10.0 miCalmClear
10:35 PM45.3 °F32.7 °F61 %30.01 in10.0 miSouth (190°)4.6 mphClear
10:55 PM44.6 °F32.0 °F61 %30.01 in10.0 miSSW (210°)3.5 mphClear
11:15 PM42.6 °F32.2 °F67 %30.01 in10.0 miSW (230°)5.8 mphClear
11:35 PM40.6 °F32.4 °F72 %30.02 in10.0 miSW (230°)4.6 mphClear
11:55 PM39.4 °F32.5 °F76 %30.02 in10.0 miNorth (360°)3.5 mphClear
Hourly data recorded from KF05, located miles away from Quanah, Texas







STORIES FROM OUR PARTNERS